STARLINK-11256, 60904

Orbit data source: Space-Track

STARLINK-11256, 60904 is a payload satellite owned by SpaceX/Seattle (US) in LEO that was launched on Sat, 31 Aug 2024 UTC via an FALCON 9 launch vehicle from the Air Force Eastern Test Range (AFETR). Payload-class satellites include a variety of spacecraft equipped with specific instruments for various scientific and technological missions. These include communications satellites like Starlink; space stations such as the ISS; scientific satellites like the Hubble; Earth observation satellites from companies like Planet Labs, Umbra, and HawkEye 360; GPS; miniature CubeSats for education and research; and military/defense satellites.

Loading next visibility...
Identifier
60904, 2024-154B
Orbit
LEO
Country
Flag of USUS
Related business
Manufacturer
SpaceX/Seattle
Mission
Operational Commercial Communications
Bus & Motor
STARLINK V2MD, Unknown motor
Mass
960 kg wet, ~910 kg dry
Launch date (UTC)
2024-08-31 (2 years ago)
Launch vehicle
FALCON 9
Launch site
Air Force Eastern Test Range (AFETR)
Object type
Payload
Rocket body
Debris
Shape & HBR
Box + 2 Pan, 18.1 m
Radar Cross Section
36.964 m², Large (>1 m²)

Expand to show TLE details & history
Last TLE update: 1 day ago

TLE from 1 day ago
0 STARLINK-11256
1 60904U 24154B   26129.46197619 -.00001693  00000-0 -91267-5 0  9999
2 60904  53.1592 191.3634 0001057  62.9524 297.1602 15.69700890 98069
Epoch: 2026-05-09T11:05Z
TLE epoch observation values (Epoch: 2026-05-09T11:05:14.742Z)
Latitude
-0.00001°
Longitude
157.7729°
Altitude
360.343 km
Speed
7.694 km/s
True Right ascension
12h 45m 27s
True Declination
0° 00' 00"
Sunlit
Object was in full shadow at epoch
Visualization orbit readout
Latitude
Unknown
Longitude
Unknown
Altitude
Unknown
Speed
Unknown
Apparent Right ascension
Unknown
Apparent Declination
Unknown
Sunlit
N/A
Visualization observer readout
Local Sidereal Time
19:51:06
Azimuth
Unknown
Elevation
Unknown
Doppler factor
Unknown
Orbital elements
Apogee altitude
360.726 km
Perigee altitude
359.301 km
Semi-major axis
6,738.151 km
Eccentricity
0.00011
Inclination
53.1592°
RAAN
191.3634°
Arg. of periapsis
62.9524°
True anomaly
297.14942°
Mean anomaly
297.1602°
Eccentric anomaly
297.15481°
Mean motion
3.92403 °/min
Orbital period
91.74 mins
BSTAR
-0.0000091267
Loading maneuver chart data...
Computing Atmospheric mass density...
Loading historical data...
Loading historical data...
Loading historical data...
Loading historical data...
Loading historical data...
Loading historical data...
Loading historical data...

Documentation

Showing up to 5 results
|